[[{"header":{"parameterUnit":"m.s-1","parameterCategory":1,"la1":30.2992,"la2":30.254,"lo1":-89.0895,"lo2":-89.0443,"dy":0.0025,"dx":0.0025,"nx":19,"ny":19,"refTime":"2026-03-13T21:00:00:Z","depth":0,"parameterNumber":2,"parameterNumberName":"U-component_of_WINDS"},"data":[0,0,0,-4.3298,-4.3301,-4.3444,-4.3445,-4.3613,-4.3614,0,0,0,0,0,0,0,0,0,0,0,-4.325,-4.3251,-4.3297,-4.3301,-4.3444,-4.3445,-4.3612,-4.3614,0,0,0,0,0,0,0,0,0,0,0,-4.3249,-4.325,-4.3252,-4.3301,-4.3444,-4.3445,-4.3612,-4.3508,0,0,0,0,0,0,0,0,0,0,-4.3371,-4.3323,-4.325,-4.3252,-4.3302,-4.3444,-4.3445,-4.3504,-4.3515,-4.3542,0,-4.3569,0,-4.3594,-4.3625,-4.3625,0,0,0,-4.3304,-4.3313,-4.3357,-4.3252,-4.3303,-4.3444,-4.338,-4.351,-4.3523,-4.3557,-4.3571,-4.3578,-4.3597,-4.3626,-4.3627,-4.3782,-4.3782,0,0,-4.3296,-4.3272,-4.3349,-4.3365,-4.3347,-4.3376,-4.3385,-4.3518,-4.353,-4.3572,-4.3582,-4.36,-4.3627,-4.3628,-4.3781,-4.3782,0,0,0,-4.3271,-4.3266,-4.3307,-4.3358,-4.3386,-4.338,-4.339,-4.3524,-4.354,-4.3584,-4.3602,-4.3628,-4.363,-4.3781,-4.3781,-4.3786,0,0,0,-4.3266,-4.3251,-4.3303,-4.329,-4.3383,-4.3458,-4.3393,-4.3531,-4.3547,-4.3601,-4.3628,-4.3631,-4.378,-4.3781,-4.3785,-4.3791,0,0,0,-4.3242,-4.3249,-4.3268,-4.3288,-4.335,-4.3456,-4.348,-4.3535,-4.3557,-4.3625,-4.3632,-4.378,-4.3781,-4.3783,-4.3789,-4.3822,0,0,0,-4.3208,-4.327,-4.3268,-4.3344,-4.3348,-4.346,-4.3479,-4.3563,-4.3622,-4.3629,-4.378,-4.3781,-4.3783,-4.3787,-4.3821,-4.3844,-4.3853,0,0,-4.3272,-4.3277,-4.3323,-4.3326,-4.3431,-4.344,-4.3545,-4.3621,-4.3648,-4.3734,-4.3739,-4.3785,-4.3789,-4.3822,-4.3915,-4.3921,0,0,0,-4.3335,-4.3367,-4.3401,-4.3458,-4.352,-4.3571,-4.3634,-4.3662,-4.3737,-4.3689,-4.3809,-4.3812,-4.3832,-4.3844,-4.385,-4.3867,-4.3787,-4.3787,-4.3787,-4.3388,-4.3422,-4.35,-4.3551,-4.3605,-4.367,-4.3715,-4.3763,-4.378,-4.3808,-4.3832,-4.3885,-4.3898,-4.3903,-4.392,-4.3851,-4.3851,-4.3851,-4.3851,-4.3482,-4.3531,-4.3555,-4.3639,-4.3673,-4.3742,-4.3806,-4.3815,-4.3882,-4.387,-4.3889,-4.3869,-4.3909,-4.3926,-4.3851,-4.3851,-4.3851,-4.3851,-4.3851,-4.3517,-4.3546,-4.3582,-4.3666,-4.3727,-4.3776,-4.3839,-4.3868,-4.3896,-4.3916,-4.3942,-4.3942,-4.3943,-4.3927,-4.3927,-4.3928,-4.3928,-4.3928,-4.3928,-4.3538,-4.3578,-4.3629,-4.37,-4.3739,-4.3795,-4.386,-4.3898,-4.3947,-4.3963,-4.3963,-4.3974,-4.3909,-4.3889,-4.3931,-4.393,-4.393,-4.393,-4.3929,-4.3613,-4.3601,-4.3681,-4.3721,-4.3805,-4.3861,-4.3899,-4.3974,-4.401,-4.4039,-4.4048,-4.3996,-4.4001,-4.3997,-4.398,-4.4043,-4.4043,-4.4043,-4.4043,-4.364,-4.3648,-4.3734,-4.3795,-4.3859,-4.3901,-4.3985,-4.4035,-4.4085,-4.4108,-4.4104,-4.4087,-4.4081,-4.409,-4.4083,-4.4068,-4.4152,-4.4152,-4.4152,-4.3687,-4.3702,-4.3769,-4.3821,-4.3889,-4.3945,-4.4024,-4.409,-4.4144,-4.4157,-4.4126,-4.4122,-4.4094,-4.4084,-4.4092,-4.4082,-4.4055,0,0]},{"header":{"parameterUnit":"m.s-1","parameterCategory":1,"la1":30.2992,"la2":30.254,"lo1":-89.0895,"lo2":-89.0443,"dy":0.0025,"dx":0.0025,"nx":19,"ny":19,"refTime":"2026-03-13T21:00:00:Z","depth":0,"parameterNumber":3,"parameterNumberName":"V-component_of_WINDS"},"data":[0,0,0,5.8815,5.8819,5.897,5.897,5.917,5.9171,0,0,0,0,0,0,0,0,0,0,0,5.8778,5.878,5.8815,5.8819,5.897,5.897,5.9169,5.9171,0,0,0,0,0,0,0,0,0,0,0,5.8778,5.878,5.8782,5.882,5.897,5.897,5.9169,5.9052,0,0,0,0,0,0,0,0,0,0,5.8903,5.8879,5.8779,5.8782,5.882,5.897,5.897,5.9046,5.9059,5.9105,0,5.9152,0,5.9165,5.9186,5.9186,0,0,0,5.8812,5.8868,5.8902,5.8782,5.8822,5.8969,5.89,5.9053,5.9068,5.9122,5.9155,5.9162,5.9169,5.9187,5.9188,5.9485,5.9486,0,0,5.8803,5.8809,5.8891,5.8912,5.8894,5.8895,5.8905,5.9062,5.9096,5.9156,5.9166,5.9172,5.9188,5.919,5.9483,5.9485,0,0,0,5.8784,5.8803,5.8833,5.8904,5.8931,5.89,5.8911,5.9089,5.9098,5.9168,5.9174,5.919,5.9192,5.9481,5.9484,5.9573,0,0,0,5.8779,5.8792,5.883,5.8835,5.8928,5.9013,5.8934,5.9087,5.9105,5.9173,5.919,5.9194,5.948,5.9483,5.9567,5.9613,0,0,0,5.8766,5.8791,5.8816,5.8835,5.89,5.901,5.9028,5.9091,5.9109,5.9186,5.9195,5.9478,5.9482,5.9561,5.9604,5.969,0,0,0,5.8752,5.8893,5.8817,5.8976,5.8899,5.9066,5.9027,5.9151,5.9228,5.9191,5.948,5.9484,5.9559,5.9598,5.9684,5.9763,5.9797,0,0,5.8932,5.8915,5.9008,5.8945,5.9127,5.9043,5.9236,5.9301,5.9302,5.9422,5.943,5.9569,5.9603,5.9689,5.9992,6.0019,0,0,0,5.9067,5.9133,5.918,5.9256,5.931,5.9359,5.9394,5.9417,5.952,5.9367,5.9625,5.9645,5.9696,5.9732,5.9756,5.9796,5.9502,5.9502,5.9501,5.9328,5.9323,5.9475,5.9489,5.9562,5.9596,5.9653,5.969,5.9663,5.9724,5.9759,5.9944,5.9988,6.0005,6.0048,5.9803,5.9803,5.9804,5.9804,5.9588,5.968,5.9642,5.9776,5.9769,5.988,5.9917,5.9894,5.9993,5.9918,5.9962,5.9877,6.0035,6.0072,5.981,5.9809,5.9808,5.9808,5.9807,5.9756,5.9799,5.9827,5.9934,6.0016,6.0023,6.012,6.0111,6.0101,6.0145,6.0178,6.0177,6.0171,6.0163,6.0163,6.0164,6.0164,6.0165,6.0165,5.9918,5.9946,6.0031,6.01,6.0145,6.0204,6.0239,6.0282,6.0326,6.0311,6.0311,6.0276,6.0053,5.9995,6.0175,6.0173,6.0172,6.0171,6.0171,6.0178,6.0118,6.0249,6.0295,6.0372,6.0452,6.0439,6.0528,6.0562,6.0609,6.0565,6.0403,6.0383,6.0364,6.0316,6.0568,6.0568,6.0568,6.0568,6.0317,6.0307,6.0437,6.051,6.0581,6.0582,6.0725,6.0752,6.077,6.079,6.0752,6.0689,6.067,6.0661,6.0636,6.059,6.0907,6.0907,6.0907,6.0475,6.0471,6.0597,6.0617,6.0676,6.0726,6.0859,6.0941,6.0948,6.0921,6.0804,6.079,6.0687,6.0654,6.0621,6.0583,6.0499,0,0]}]]